Regional Weather Roundup
Issued by NWS

Home | Current Version | Previous Version | Text Only | Print | Product List | Glossary Off
Versions: 1 2 3 4 5 6 7 8 9 10 11 12 13 14 15 16 17 18 19 20 21 22 23 24 25 26 27 28 29 30 31 32 33 34 35 36 37 38 39 40 41 42 43 44 45 46 47 48 49 50

000
ASUS45 KSLC 232210
RWRUT

UTAH REGIONAL WEATHER ROUNDUP
NATIONAL WEATHER SERVICE SALT LAKE CITY UT
400 PM MDT SAT MAY 23 2015

UTZ001>011-023>025-232300-

NORTHERN UTAH

CITY           SKY/WX    TMP DP  RH WIND       PRES   REMARKS
BRIGHAM CITY   CLOUDY    58  42  55 W5        29.94F
HILL AFB       PTSUNNY   55  45  68 NW10      29.94F
LOGAN          PTSUNNY   58  45  62 VRB6      29.93F
OGDEN          CLOUDY    57  45  64 NW8G16    29.94S
PROVO AIRPORT  PTSUNNY   55  43  62 SW6       29.94S
SALT LAKE CITY PTSUNNY   58  45  62 N7        29.93S
VERNAL         MOSUNNY   61  31  32 S9        29.92F
WENDOVER       CLOUDY    54  48  82 S3        29.95S
HEBER CITY     PTSUNNY   61  32  33 CALM      29.90F THUNDER
WEST JORDAN    CLOUDY    55  46  71 N7        29.94S

$$

UTZ012>022-026-027-232300-

SOUTHERN/CENTRAL UTAH

CITY           SKY/WX    TMP DP  RH WIND       PRES   REMARKS
BLANDING       CLOUDY    47  40  76 W8G17     30.09F
BRYCE CANYON   LGT RAIN  42  38  85 NE3       30.03S
CEDAR CITY     CLOUDY    50  44  80 S12       29.96F
DELTA          CLOUDY    55  42  60 S6        29.95F
HANKSVILLE     PTSUNNY   59  39  47 SE8G17    29.96F
MILFORD        LGT RAIN  49  44  83 S7        29.97S
MOAB/CYNLANDS  CLOUDY    59  36  42 SW8       29.92F
PRICE          CLOUDY    52  38  58 E14       29.97S
ST GEORGE      MOCLDY    68  43  40 CALM      29.92F
KANAB          CLOUDY    54  45  71 CALM      30.02F

$$

REGIONAL REPORTS     COLORADO/ARIZONA

CITY           SKY/WX    TMP DP  RH WIND       PRES   REMARKS
CRAIG, CO      CLOUDY    57  34  41 NW9       29.96F
GRAND JUNCTION PTSUNNY   56  40  55 NW16      29.96F
RIFLE          CLOUDY    58  34  40 W13G20    29.95S
MONTROSE       CLOUDY    54  34  46 SE6       29.99F
CORTEZ         PTSUNNY   54  34  46 SW8       30.02F
PAGE, AZ       CLOUDY    58  42  55 S6        29.98F
GRAND CANYON   LGT RAIN  47  41  80 VRB3      30.06F
KINGMAN        MOSUNNY   72  36  26 S14G24    29.96F
FLAGSTAFF      PTSUNNY   54  33  45 W15G21    30.08F

$$

REGIONAL REPORTS    NEVADA/IDAHO/WYOMING

CITY           SKY/WX    TMP DP  RH WIND       PRES   REMARKS
LAS VEGAS, NV  PTSUNNY   78  40  25 SW8       29.83F
ELY            CLOUDY    55  43  63 NE10      29.97F
ELKO           CLOUDY    59  46  62 E6        29.95F THUNDER
POCATELLO, ID  CLOUDY    55  49  80 NW7       29.96R
BURLEY         LGT RAIN  52  48  86 SE16      29.91R
EVANSTON, WY   PTSUNNY   42  39  89 W12       29.98F
ROCK SPRINGS   MOSUNNY   57  38  48 N10       29.94F
KEMMERER       LGT RAIN  45  34  65 NW7       30.00F

$$


USA.gov is the U.S. government's official web portal to all federal, state and local government web resources and services.